Home > Time Zones > World Clock > Weather > Italy > Bari > Past weeks

Flag for Italy Weather past 2 weeks in Bari, Italy

Now
90 °F

Sunny.


Feels Like: 95 °F
Forecast: 77 / 90 °F
Wind: No wind

Location: Bari / Palese Macchie

Current Time: Jul 8, 2015 at 9:09:24 AM

Latest Report: Jul 8, 2015 at 7:50 AM


Visibility: 10 mi

Pressure: 29.89 "Hg

Humidity: 52%

Dew point: 70 °F

Location of BariLocation

Historic Weather in Bari — Graph

°F

Bari temperature yesterday

Maximum temperature yesterday: 95 °F (at 12:20 PM)
Minimum temperature yesterday: 70 °F (at 3:50 AM)
Average temperature yesterday: 86 °F

Past Weeks' High & Low Weather Summary

 TemperatureHumidityPressure
High95 °F (Jul 7, 12:20 PM)94% (Jul 2, 1:20 AM)30.21 "Hg (Jul 2, 1:20 AM)
Low64 °F (Jun 26, 3:50 AM)23% (Jun 23, 12:20 PM)29.86 "Hg (Jun 23, 3:50 PM)
Average78 °F59%30.06 "Hg
* Reported Jun 23 7:20 AM — Jul 8 7:50 AM, Bari, Weather by CustomWeather, © 2015

Note: Actual official high and low records may vary slightly from our data, if they occured in-between our weather recording intervals... More about our weather records

Advertising

Bari weather history for previous 24 hours

 ConditionsComfort  
Time TempWeatherWind HumidityBarometerVisibility
7:50 AM
Wed, Jul 8
90 °FSunny.No wind52%29.89 "Hg10 mi
7:20 AM84 °FSunny.2 mph58%29.89 "Hg10 mi
6:50 AM79 °FSunny.7 mph54%29.89 "Hg10 mi
6:20 AM75 °FClear.7 mph61%29.89 "Hg10 mi
5:50 AM75 °FClear.2 mph54%29.89 "Hg10 mi
5:20 AM75 °FClear.1 mph57%29.89 "Hg10 mi
4:50 AM75 °FClear.2 mph57%29.89 "Hg10 mi
4:20 AM77 °FClear.6 mph54%29.89 "Hg10 mi
3:50 AM77 °FClear.7 mph54%29.89 "Hg10 mi
3:20 AM77 °FClear.7 mph54%29.89 "Hg10 mi
2:50 AM77 °FClear.8 mph61%29.89 "Hg10 mi
2:20 AM75 °FClear.5 mph69%29.92 "Hg10 mi
1:50 AM77 °FClear.3 mph65%29.92 "Hg10 mi
1:20 AM73 °FClear.1 mph74%29.92 "Hg10 mi
12:50 AM79 °FClear.1 mph58%29.92 "Hg10 mi
12:20 AM81 °FClear.1 mph54%29.92 "Hg10 mi
11:50 PM
Tue, Jul 7
79 °FClear.5 mph51%29.92 "Hg10 mi
11:20 PM82 °FClear.5 mph51%29.92 "Hg10 mi
10:50 PM82 °FClear.2 mph58%29.92 "Hg10 mi
10:20 PM82 °FClear.1 mph62%29.92 "Hg10 mi
9:50 PM84 °FClear.No wind58%29.92 "Hg10 mi
9:20 PM88 °FSunny.No wind49%29.92 "Hg10 mi
8:20 PM90 °FSunny.3 mph43%29.92 "Hg10 mi
7:50 PM93 °FSunny.3 mph36%29.92 "Hg10 mi
7:20 PM95 °FPassing clouds.5 mph28%29.95 "HgN/A
6:50 PM95 °FPassing clouds.7 mph28%29.95 "HgN/A
6:20 PM95 °FSunny.7 mph34%29.95 "Hg10 mi
5:50 PM93 °FPassing clouds.9 mph36%29.95 "HgN/A
5:20 PM93 °FPassing clouds.10 mph39%29.95 "HgN/A
4:50 PM93 °FPassing clouds.10 mph41%29.98 "HgN/A
4:20 PM93 °FSunny.10 mph39%29.98 "Hg10 mi
3:50 PM93 °FPassing clouds.9 mph36%29.98 "HgN/A
3:20 PM95 °FSunny.10 mph32%29.98 "Hg10 mi
2:50 PM95 °FPassing clouds.9 mph30%29.98 "HgN/A
2:20 PM95 °FPassing clouds.9 mph32%30.01 "HgN/A
1:50 PM95 °FPassing clouds.10 mph39%30.01 "HgN/A
1:20 PM93 °FPassing clouds.10 mph34%30.01 "HgN/A
12:50 PM95 °FPassing clouds.8 mph34%30.01 "HgN/A
12:20 PM95 °FPassing clouds.8 mph34%30.04 "HgN/A
11:50 AM93 °FPassing clouds.7 mph36%30.04 "HgN/A
11:20 AM93 °FPassing clouds.7 mph34%30.04 "HgN/A
10:50 AM93 °FPassing clouds.6 mph30%30.04 "HgN/A
10:20 AM93 °FPassing clouds.5 mph36%30.04 "HgN/A
9:50 AM91 °FPassing clouds.5 mph41%30.04 "HgN/A
9:20 AM91 °FPassing clouds.5 mph41%30.04 "HgN/A
Weather by CustomWeather, © 2015

See weather overviewHow to use our weather pages